Regional Weather Roundup
Issued by NWS Bismarck, ND

Home | Current Version | Previous Version | Text Only | Print | Product List | Glossary On
Versions: 1 2 3 4 5 6 7 8 9 10 11 12 13 14 15 16 17 18 19 20 21 22 23 24 25 26 27 28 29 30 31 32 33 34 35 36 37 38 39 40 41 42 43 44 45 46 47 48 49 50
000
ASUS43 KBIS 280510
RWRBIS

NWR BROADCAST TEXT
NATIONAL WEATHER SERVICE BISMARCK ND
1200 AM CDT SAT MAY 28 2016

NOTE: "FAIR" INDICATES FEW OR NO CLOUDS BELOW 12,000 FEET WITH NO
SIGNIFICANT WEATHER AND/OR OBSTRUCTIONS TO VISIBILITY.


CITY           SKY/WX    TMP DP  RH WIND       PRES   REMARKS
WILLISTON      PTCLDY    57  52  83 NE6       29.87R
MINOT          CLOUDY    59  54  83 NE9       29.87S
MINOT AFB      CLOUDY    56  53  89 E9        29.87R
BISMARCK       PTCLDY    57  50  77 NE7       29.82S
DICKINSON      CLEAR     51  45  79 NE7       29.83F
GARRISON         N/A     57  55  93 NE7       29.84S
HETTINGER ARPT CLEAR     42  39  89 W3        29.85S
JAMESTOWN      CLOUDY    60  57  89 N6        29.79S
BEACH          FAIR      50  50 100 NE3       29.88S
CARRINGTON     FAIR      59  57  94 NE7       29.84S
HAZEN          CLOUDY    54  52  94 CALM      29.85S
LINTON           N/A     57  54  88 E3          N/A
MANDAN         FAIR      57  50  77 NE6       29.83S
OAKES            N/A    N/A N/A N/A MISG        N/A
RUGBY          CLOUDY    55  55 100 NE17      29.86S
STANLEY        CLOUDY    55  55 100 NE10G18   29.90S
WATFORD CITY   FAIR      50  50 100 E7        29.86S
$$

CITY           SKY/WX    TMP DP  RH WIND       PRES   REMARKS
GRAND FORKS    CLOUDY    63  58  83 CALM      29.78F
GRAND FORKS AF CLOUDY    63  61  92 E5        29.79S
DEVILS LAKE    CLOUDY    59  56  89 NE14      29.84S
FARGO          PTCLDY    63  58  83 SE10      29.78S
CAVALIER       CLOUDY    59  57  94 N13       29.83S
GRAFTON        FAIR      63  63 100 NW6       29.83R
GWINNER        FAIR      59  57  94 E7        29.81R
LANGDON        CLOUDY    57  57 100 N10G16    29.86S
ROLLA          CLOUDY    52  52 100 NE15      29.90R
WALHALLA       FAIR      59  59 100 N14       29.85S
$$

CITY           SKY/WX    TMP DP  RH WIND       PRES   REMARKS
ABERDEEN       CLOUDY    60  57  89 SE3       29.79R
MOBRIDGE       CLOUDY    56  51  84 N5        29.79S
BUFFALO          N/A     55  45  68 CALM      29.79S
RAPID CITY     CLOUDY    48  45  89 CALM      29.86S
GLASGOW        CLOUDY    58  50  75 E12       29.83F
SIDNEY         CLOUDY    55  52  89 NE5       29.85S
WOLF POINT     CLEAR     54  49  83 NE6       29.85S
GLENDIVE       PTCLDY    57  48  72 NE7       29.87R
MILES CITY     CLOUDY    58  49  72 CALM      29.84R
BAKER          CLEAR     51  44  77 CALM      29.85S
$$

CITY           SKY/WX    TMP DP  RH WIND       PRES   REMARKS
BILLINGS       CLOUDY    52  48  86 W5        29.90R
GREAT FALLS    CLOUDY    51  44  77 SE3       29.93S
REGINA         PTCLDY    57  50  77 E13G18    29.92R
ESTEVAN        CLOUDY    54  52  94 SE10      29.90S
$$




USA.gov is the U.S. government's official web portal to all federal, state and local government web resources and services.